Regional Weather Roundup
Issued by NWS

Home | Current Version | Previous Version | Graphics & Text | Print | Product List | Glossary On
Versions: 1 2 3 4 5 6 7 8 9 10 11 12 13 14 15 16 17 18 19 20 21 22 23 24 25 26 27 28 29 30 31 32 33 34 35 36 37 38 39 40 41 42 43 44 45 46 47 48 49 50
000
ASUS43 KOAX 010102
RWRNE

WEATHER ROUNDUP FOR NEBRASKA
NATIONAL WEATHER SERVICE OMAHA NE
800 PM CDT SUN APR 30 2017

NOTES: SATELLITE DATA IS BEING USED TO AUGMENT CLOUD COVER ABOVE
       12000 FEET.
       "FAIR" INDICATES FEW OR NO CLOUDS BELOW 12,000 FEET WITH NO
       SIGNIFICANT WEATHER AND/OR OBSTRUCTIONS TO VISIBILITY.

  * THESE STATIONS DO NOT REPORT WEATHER SUCH AS RAIN...SNOW OR FOG.

NEZ001>004-019>022-054>056-010200-
NEBRASKA PANHANDLE

CITY           SKY/WX    TMP DP  RH WIND       PRES   REMARKS
SCOTTSBLUFF    CLEAR     56  25  30 N13       29.83F
ALLIANCE       PTCLDY    53  20  27 N17       29.81S
CHADRON        CLOUDY    55  25  31 NE13      29.83S
KIMBALL        CLEAR     51  23  33 N18G25    29.84R
SIDNEY         CLOUDY    52  19  27 N26G35    29.81R
$$

NEZ057>060-069>072-079>082-010200-
SOUTHWEST NEBRASKA

CITY           SKY/WX    TMP DP  RH WIND       PRES   REMARKS
NORTH PLATTE   CLOUDY    39  31  72 N22G32    29.73F WCI  29
IMPERIAL       CLOUDY    48  21  34 N22       29.74S
LEXINGTON      LGT SNOW  34  32  92 N33       29.68S WCI  20
MCCOOK         CLOUDY    36  32  85 N28       29.72S WCI  23
OGALLALA       CLOUDY    51  22  32 N18G28    29.76S
$$

NEZ005>010-023>029-035>040-094-010200-
NORTH CENTRAL NEBRASKA

CITY           SKY/WX    TMP DP  RH WIND       PRES   REMARKS
VALENTINE      CLOUDY    50  16  25 N17G24    29.78F
AINSWORTH      CLOUDY    45  25  45 NE15      29.76S
BROKEN BOW     LGT SNOW  34  33  96 N32G40    29.68S FOG     WCI  20
O`NEILL        SNOW      33  32  94 N17       29.72F VSB 1/2 WCI  23
ORD            LGT SNOW  33  31  92 N26G36    29.63F VSB 3/4 WCI  20
THEDFORD       CLOUDY    47  20  35 N12G22    29.75S
$$

NEZ041-046>049-061>064-073>077-083>087-010200-
SOUTH CENTRAL NEBRASKA

CITY           SKY/WX    TMP DP  RH WIND       PRES   REMARKS
GRAND ISLAND   CLOUDY    35  35 100 N18       29.61S WCI  24
AURORA         LGT RAIN  35  35  99 N22G28    29.57S WCI  23
HASTINGS       LGT SNOW  35  33  92 N21       29.59S FOG     WCI  24
HEBRON         DRIZZLE   40  39  99 N12       29.51R WCI  32
HOLDREGE       LGT SNOW  33  32  96 N22       29.63F WCI  21
KEARNEY *      CLOUDY    34  30  86 N18G26    29.64S WCI  23
YORK           MIX PCPN  37  37 100 N20G29    29.55S WCI  27
$$

NEZ011>018-030>034-042>045-010200-
NORTHEAST NEBRASKA

CITY           SKY/WX    TMP DP  RH WIND       PRES   REMARKS
NORFOLK        FLURRIES  35  32  88 N30G45    29.48F WCI  22
ALBION         CLOUDY    36  33  88 N9G17     29.63R WCI  29
BLAIR          CLOUDY    41  40  94 NE17G25   29.52R FOG
FREMONT        CLOUDY    41  39  95 NE12      29.54F
TEKAMAH        CLOUDY    42  39  89 N17       29.56F
WAYNE          LGT RAIN  36  36  99 N25G36    29.53F WCI  24
$$

NEZ050>053-065>068-078-088>093-010200-
SOUTHEAST NEBRASKA

CITY           SKY/WX    TMP DP  RH WIND       PRES   REMARKS
LINCOLN        CLOUDY    42  39  89 NE16      29.52S
OMAHA EPPLEY   CLOUDY    44  38  79 N16       29.54R
BEATRICE       CLOUDY    43  42  96 NE14G22   29.47S
FALLS CITY     CLOUDY    50  44  80 SE6       29.45S
NEBRASKA CITY  CLOUDY    43  43 100 NE16      29.49R
PLATTSMOUTH    CLOUDY    43  40  87 NE14      29.51R
$$

NEZ044-045-051>053-067-010200-
OMAHA AREA

CITY           SKY/WX    TMP DP  RH WIND       PRES   REMARKS
OMAHA EPPLEY   CLOUDY    44  38  79 N16       29.54R
BLAIR          CLOUDY    41  40  94 NE17G25   29.52R FOG
FREMONT        CLOUDY    41  39  95 NE12      29.54F
MILLARD        CLOUDY    45  41  88 NE8G16    29.52R
OFFUTT AFB     MOCLDY    44  40  86 NE10G20   29.51R
PLATTSMOUTH    CLOUDY    43  40  87 NE14      29.51R
WAHOO          CLOUDY    41  39  93 N16       29.53S
$$



USA.gov is the U.S. government's official web portal to all federal, state and local government web resources and services.